Voltar ao catálogo

STARLINK-36610

AtivoComunicaçõesVLEO
NORAD 67637·PAYLOAD·🇺🇸 United States

Lançado Jan 30, 2026 de Cape Canaveral Space Force Station

Loading…

Próximas Passagens (próximas 24 horas)

TLE

AtualizadoSource: CelesTrak SupGP

Época: Sep 14, 2026, 21:06 UTC

1 67637C 26020W   26257.87965278 -.00030357  00000+0 -10994-2 0  2574
2 67637  43.0004 151.2615 0001392 267.2847 270.1557 15.27596690    12

Acompanhe STARLINK-36610 em tempo real com AllMySat

Download on the App Store